Butler, PA

11:57 AM EDT on August 17, 2019 (GMT -0400)
Butler County-Scholter

Weather History for KBTP - July, 2019

Change the Weather History Date:

Friday, July 19, 2019

  Actual Average Record
Temperature  
Mean Temperature 79 °F -  
Max Temperature 87 °F 77 °F 95 °F (1968)
Min Temperature 72 °F 59 °F 48 °F (1989)
Cooling Degree Days 14    
Growing Degree Days 29 (Base 50)    
Moisture  
Dew Point 74 °F    
Average Humidity 80    
Maximum Humidity 97    
Minimum Humidity 70    
Precipitation  
Precipitation 0.01 in - - ()
Sea Level Pressure  
Sea Level Pressure 29.97 in    
Wind  
Wind Speed 8 mph (SW)    
Max Wind Speed 14 mph    
Max Gust Speed 18 mph    
Visibility 10 miles    
Events      
Averages and records for this station are not official NWS values.
T = Trace of Precipitation, MM = Missing Value Source: NWS Daily Summary

Daily Weather History Graph

Daily Weather History Graph

Search for Another Location

Airport or City:

Astronomy

Jul. 19, 2019 Rise Set
Actual Time 6:04 AM EDT 8:47 PM EDT
Civil Twilight 5:32 AM EDT 9:19 PM EDT
Nautical Twilight 4:52 AM EDT 9:59 PM EDT
Astronomical Twilight 4:06 AM EDT 10:44 PM EDT
Moon 10:44 PM EDT (7/19) 8:29 AM EDT (7/19)
Length of Visible Light 15h 47m
Length of Day
14h 43m
Waning Gibbous, 93% of the Moon is Illuminated
Jul 19
Waning Gibbous
Jul 24
Last Quarter
Jul 31
New
Aug 7
First Quarter
Aug 15
Full

Hourly Weather History & Observations

Time (EDT) Temp. Heat Index Dew Point Humidity Pressure Visibility Wind Dir Wind Speed Gust Speed Precip Events Conditions
12:56 AM 73.0 °F - 70.0 °F 90% 29.95 in 10.0 mi SSW 4.6 mph - N/A   Clear
1:56 AM 73.0 °F - 70.0 °F 90% 29.96 in 10.0 mi SSW 5.8 mph - N/A   Clear
2:56 AM 73.0 °F - 70.0 °F 90% 29.96 in 10.0 mi SSW 5.8 mph - N/A   Clear
3:56 AM 73.0 °F - 70.0 °F 90% 29.95 in 10.0 mi SSW 5.8 mph - N/A   Mostly Cloudy
4:56 AM 72.0 °F - 70.0 °F 93% 29.94 in 10.0 mi SSW 4.6 mph - N/A   Clear
5:56 AM 72.0 °F - 71.1 °F 97% 29.95 in 9.0 mi SW 4.6 mph - N/A   Clear
6:56 AM 73.0 °F - 71.1 °F 93% 29.96 in 10.0 mi SSW 5.8 mph - N/A   Clear
7:56 AM 75.9 °F - 72.0 °F 87% 29.97 in 10.0 mi SSW 5.8 mph - N/A   Partly Cloudy
8:15 AM 75.2 °F - 73.4 °F 94% 29.98 in 10.0 mi SW 5.8 mph - N/A   Mostly Cloudy
8:56 AM 77.0 °F - 73.0 °F 88% 29.98 in 10.0 mi WSW 9.2 mph - N/A   Overcast
9:56 AM 78.1 °F - 73.9 °F 87% 29.99 in 9.0 mi SW 6.9 mph - N/A   Overcast
10:56 AM 79.0 °F - 73.9 °F 84% 30.00 in 9.0 mi WSW 11.5 mph - N/A   Overcast
11:56 AM 81.0 °F 86.7 °F 75.0 °F 82% 29.97 in 8.0 mi SW 9.2 mph - N/A   Overcast
12:11 PM 82.4 °F 89.5 °F 75.2 °F 79% 29.99 in 9.0 mi SSW 9.2 mph - N/A   Overcast
12:56 PM 84.0 °F 92.6 °F 75.9 °F 76% 29.97 in 9.0 mi SW 6.9 mph - N/A   Overcast
1:20 PM 84.2 °F 92.3 °F 75.2 °F 74% 29.99 in 10.0 mi SSW 11.5 mph - N/A   Mostly Cloudy
1:28 PM 84.2 °F 92.3 °F 75.2 °F 74% 29.99 in 10.0 mi SW 9.2 mph - N/A   Mostly Cloudy
1:38 PM 86.0 °F 95.1 °F 75.2 °F 70% 29.99 in 10.0 mi SSW 10.4 mph - 0.01 in   Mostly Cloudy
1:53 PM 84.2 °F 92.3 °F 75.2 °F 74% 29.99 in 9.0 mi SW 11.5 mph - 0.01 in   Mostly Cloudy
1:56 PM 86.0 °F 96.0 °F 75.9 °F 72% 29.97 in 9.0 mi SW 11.5 mph - 0.01 in   Mostly Cloudy
2:35 PM 84.2 °F 92.3 °F 75.2 °F 74% 29.99 in 10.0 mi SW 10.4 mph - N/A   Mostly Cloudy
2:45 PM 84.2 °F 92.3 °F 75.2 °F 74% 29.99 in 9.0 mi SW 10.4 mph 17.3 mph N/A   Mostly Cloudy
2:53 PM 86.0 °F 95.1 °F 75.2 °F 70% 29.98 in 9.0 mi SSW 10.4 mph - N/A   Mostly Cloudy
2:56 PM 84.9 °F 94.1 °F 75.9 °F 74% 29.97 in 9.0 mi SSW 9.2 mph - N/A   Mostly Cloudy
3:03 PM 86.0 °F 96.9 °F 77.0 °F 74% 29.98 in 8.0 mi SSW 9.2 mph 16.1 mph N/A   Mostly Cloudy
3:47 PM 86.0 °F 95.1 °F 75.2 °F 70% 29.99 in 8.0 mi SW 12.7 mph 17.3 mph N/A   Mostly Cloudy
3:56 PM 86.0 °F 96.0 °F 75.9 °F 72% 29.97 in 9.0 mi SW 12.7 mph 18.4 mph N/A   Mostly Cloudy
4:35 PM 86.0 °F 95.1 °F 75.2 °F 70% 29.98 in 10.0 mi SW 9.2 mph - N/A   Mostly Cloudy
4:56 PM 86.0 °F 96.0 °F 75.9 °F 72% 29.96 in 10.0 mi WSW 13.8 mph 17.3 mph N/A   Mostly Cloudy
5:04 PM 86.0 °F 95.1 °F 75.2 °F 70% 29.97 in 9.0 mi SW 13.8 mph - N/A   Scattered Clouds
5:39 PM 86.0 °F 96.9 °F 77.0 °F 74% 29.97 in 10.0 mi SW 6.9 mph - N/A   Mostly Cloudy
5:48 PM 84.2 °F 92.3 °F 75.2 °F 74% 29.97 in 10.0 mi SW 10.4 mph 16.1 mph N/A   Mostly Cloudy
5:56 PM 84.9 °F 94.1 °F 75.9 °F 74% 29.95 in 10.0 mi SW 12.7 mph - N/A   Mostly Cloudy
6:56 PM 84.9 °F 93.3 °F 75.0 °F 72% 29.94 in 10.0 mi SW 12.7 mph - N/A   Scattered Clouds
7:56 PM 84.0 °F 92.6 °F 75.9 °F 76% 29.96 in 10.0 mi SSW 4.6 mph - N/A   Clear
8:56 PM 82.0 °F 88.6 °F 75.0 °F 79% 29.96 in 10.0 mi SSW 4.6 mph - N/A   Clear
9:56 PM 80.1 °F 85.1 °F 75.0 °F 85% 29.98 in 10.0 mi South 4.6 mph - N/A   Scattered Clouds
10:56 PM 80.1 °F 85.1 °F 75.0 °F 85% 29.98 in 10.0 mi South 4.6 mph - N/A   Scattered Clouds
11:56 PM 79.0 °F - 75.0 °F 88% 29.99 in 10.0 mi East 3.5 mph - N/A   Mostly Cloudy